Powrót do katalogu

STARLINK-1373

AktywnyŁącznośćVLEO
NORAD 45544·PAYLOAD·🇺🇸 United States

Wystrzelony Apr 22, 2020 z Cape Canaveral Space Force Station

Loading…

Następne Przeloty (najbliższe 24 godziny)

TLE

ŚwieżeSource: CelesTrak SupGP

Epoka: Sep 14, 2026, 21:40 UTC

1 45544C 20025P   26257.90326389  .00139500  00000+0  62618-3 0  2573
2 45544  53.0354 235.2337 0005454  48.2558 175.4442 15.83324052    10

Śledź STARLINK-1373 w czasie rzeczywistym z AllMySat

Download on the App Store